Weather reports worldwide

Advertisment
Manston, United Kingdom (3797): temperature & dewpoint: 18.08.2019 06:00:00 - 24.08.2019 06:00:00 (BST)Manston, United Kingdom (3797): temperature -20cm & temperature -100cm: 18.08.2019 06:00:00 - 24.08.2019 06:00:00 (BST)Manston, United Kingdom (3797): wind speed & gusts: 18.08.2019 06:00:00 - 24.08.2019 06:00:00 (BST)Manston, United Kingdom (3797): wind direction: 18.08.2019 06:00:00 - 24.08.2019 06:00:00 (BST)Manston, United Kingdom (3797): reduced air pressure: 18.08.2019 06:00:00 - 24.08.2019 06:00:00 (BST)Manston, United Kingdom (3797): visibility: 18.08.2019 06:00:00 - 24.08.2019 06:00:00 (BST)Manston, United Kingdom (3797): sunshine duration: 18.08.2019 06:00:00 - 24.08.2019 06:00:00 (BST)Manston, United Kingdom (3797): precipitation: 18.08.2019 06:00:00 - 24.08.2019 06:00:00 (BST)
Date & Time tt [°C] td [°C] tt -20cm [°C] tt -100cm [°C] ff [km/h] ff [kn] fx [km/h] fx [kn] dd ppp [hPa] vv [km] sd [min] rr [mm]
24.08.2019 06:00:00 16,6 14,7 - - 16 9 - - ESE 1020,5 6 0 0,0
24.08.2019 05:00:00 16,4 14,7 - - 16 9 - - ESE 1020,6 8 0 0,0
24.08.2019 04:00:00 16,4 14,7 - - 15 8 - - ESE 1021,1 8 0 0,0
24.08.2019 03:00:00 16,1 14,6 - - 15 8 - - ESE 1021,5 8 0 0,0
24.08.2019 02:00:00 16,1 13,9 - - 15 8 - - E 1021,8 12 0 0,0
24.08.2019 01:00:00 15,8 12,5 - - 13 7 - - E 1022,3 17 - 0,0
24.08.2019 00:00:00 15,4 12,0 - - 13 7 - - E 1022,5 18 0 0,0
23.08.2019 23:00:00 15,2 11,7 - - 9 5 - - E 1022,8 30 0 0,0
23.08.2019 22:00:00 15,6 12,8 - - 11 6 - - ESE 1023,0 27 0 0,0
23.08.2019 21:00:00 16,7 14,2 - - 13 7 - - ESE 1023,1 35 0 0,0
23.08.2019 20:00:00 17,0 12,5 - - 11 6 - - E 1023,1 45 48 0,0
23.08.2019 19:00:00 19,9 12,3 - - 13 7 - - E 1023,1 40 60 0,0
23.08.2019 18:00:00 21,8 11,5 - - 11 6 - - E 1023,2 30 60 0,0
23.08.2019 17:00:00 22,6 11,3 - - 9 5 - - E 1023,7 35 60 0,0
23.08.2019 16:00:00 23,1 9,8 - - 13 7 - - E 1024,1 16 60 0,0
23.08.2019 15:00:00 23,4 13,8 - - 11 6 - - ESE 1024,6 30 60 0,0
23.08.2019 14:00:00 22,1 14,6 - - 13 7 - - SE 1025,1 30 60 0,0
23.08.2019 13:00:00 22,4 13,9 - - 16 9 - - ESE 1025,4 50 60 0,0
23.08.2019 12:00:00 22,5 13,9 - - 13 7 - - E 1025,5 40 60 0,0
23.08.2019 11:00:00 22,2 14,4 - - 9 5 - - E 1025,8 40 54 0,0
23.08.2019 10:00:00 20,7 14,3 17,0 16,0 8 4 - - N 1025,9 40 60 0,0
23.08.2019 09:00:00 19,4 15,1 - - 4 2 - - N 1026,0 30 60 0,0
23.08.2019 08:00:00 16,0 13,8 - - 4 2 - - WSW 1025,9 45 54 0,0
23.08.2019 07:00:00 14,7 13,0 - - 8 4 - - SW 1025,7 45 6 0,0
23.08.2019 06:00:00 13,9 12,2 - - 8 4 - - SSW 1025,5 45 0 0,0
23.08.2019 05:00:00 13,6 12,0 - - 5 3 - - S 1025,5 40 0 0,0
23.08.2019 04:00:00 13,7 11,9 - - 5 3 - - WSW 1025,4 45 0 0,0
23.08.2019 03:00:00 13,5 11,4 - - 9 5 - - W 1025,6 50 0 0,0
23.08.2019 02:00:00 14,2 11,8 - - 11 6 - - WSW 1025,6 45 0 0,0
23.08.2019 01:00:00 15,3 12,0 - - 16 9 - - WSW 1025,6 50 - 0,0
23.08.2019 00:00:00 15,2 11,7 - - 15 8 - - SW 1025,6 45 0 0,0
22.08.2019 23:00:00 15,7 11,5 - - 16 9 - - SW 1025,5 45 0 0,0
22.08.2019 22:00:00 16,0 12,0 - - 15 8 - - SW 1025,5 45 0 0,0
22.08.2019 21:00:00 16,6 12,5 - - 11 6 - - SSW 1025,4 45 0 0,0
22.08.2019 20:00:00 19,5 11,9 - - 13 7 - - SW 1024,7 45 42 0,0
22.08.2019 19:00:00 21,8 11,3 - - 16 9 - - WSW 1024,2 35 60 0,0
22.08.2019 18:00:00 23,0 11,1 - - 16 9 - - SW 1024,1 30 60 0,0
22.08.2019 17:00:00 23,8 10,3 - - 15 8 - - WSW 1024,4 45 60 0,0
22.08.2019 16:00:00 23,4 7,9 - - 16 9 - - WSW 1024,3 20 60 0,0
22.08.2019 15:00:00 23,2 10,3 - - 18 10 - - SW 1024,6 35 60 0,0
22.08.2019 14:00:00 22,8 8,6 - - 18 10 - - WSW 1024,9 25 60 0,0
22.08.2019 13:00:00 22,1 7,6 - - 18 10 - - SW 1025,3 40 60 0,0
22.08.2019 12:00:00 20,5 8,8 - - 16 9 - - WSW 1025,8 45 60 0,0
22.08.2019 11:00:00 20,2 7,8 - - 21 11 - - WSW 1025,9 30 60 0,0
22.08.2019 10:00:00 18,6 8,7 16,5 16,2 16 9 - - WSW 1025,6 45 60 0,0
22.08.2019 09:00:00 16,4 11,6 - - 16 9 - - WSW 1025,6 30 60 0,0
22.08.2019 08:00:00 13,5 11,8 - - 11 6 - - SW 1025,7 17 60 0,0
22.08.2019 07:00:00 11,8 10,7 - - 13 7 - - SSW 1025,6 23 24 0,0
22.08.2019 06:00:00 11,1 10,0 - - 13 7 - - SW 1025,4 20 0 0,0
22.08.2019 05:00:00 11,4 10,1 - - 13 7 - - SW 1025,3 27 0 0,0
22.08.2019 04:00:00 11,1 9,4 - - 8 4 - - WSW 1025,4 27 0 0,0
22.08.2019 03:00:00 11,2 9,6 - - 8 4 - - S 1025,2 27 0 0,0
22.08.2019 02:00:00 11,4 10,0 - - 11 6 - - S 1025,6 19 0 0,0
22.08.2019 01:00:00 12,1 10,1 - - 9 5 - - SSW 1026,0 20 - 0,0
22.08.2019 00:00:00 12,8 10,4 - - 9 5 - - S 1026,1 25 0 0,0
21.08.2019 23:00:00 13,2 10,1 - - 11 6 - - SSW 1026,3 35 0 0,0
21.08.2019 22:00:00 13,7 9,6 - - 9 5 - - SSE 1026,1 40 0 0,0
21.08.2019 21:00:00 14,6 8,0 - - 9 5 - - S 1026,3 35 0 0,0
21.08.2019 20:00:00 16,3 5,9 - - 11 6 - - S 1026,0 45 30 0,0
21.08.2019 19:00:00 19,3 5,4 - - 16 9 - - S 1025,8 35 60 0,0
21.08.2019 18:00:00 20,6 7,7 - - 21 11 - - SSW 1025,9 30 60 0,0
21.08.2019 17:00:00 21,1 8,5 - - 21 11 - - S 1026,3 50 60 0,0
21.08.2019 16:00:00 22,0 9,3 - - 15 8 - - S 1026,5 45 60 0,0
21.08.2019 15:00:00 22,2 9,8 - - 13 7 - - S 1026,7 50 60 0,0
21.08.2019 14:00:00 21,2 10,7 - - 15 8 - - SSW 1027,1 23 48 0,0
21.08.2019 13:00:00 18,8 12,5 - - 22 12 - - SE 1027,6 30 18 0,0
21.08.2019 12:00:00 18,4 12,2 - - 21 11 - - SE 1028,0 35 30 0,0
21.08.2019 11:00:00 19,8 10,5 - - 13 7 - - WSW 1028,2 30 60 0,0
21.08.2019 10:00:00 18,2 10,8 16,2 16,2 8 4 - - SW 1028,3 35 60 0,0
21.08.2019 09:00:00 16,7 11,2 - - 8 4 - - WSW 1028,4 30 60 0,0
21.08.2019 08:00:00 14,0 10,7 - - 9 5 - - SSW 1028,3 40 60 0,0
21.08.2019 07:00:00 11,6 9,3 - - 11 6 - - WSW 1028,0 35 18 0,0
21.08.2019 06:00:00 10,5 8,4 - - 11 6 - - W 1027,7 40 0 0,0
21.08.2019 05:00:00 10,3 8,1 - - 13 7 - - WSW 1027,4 45 0 0,0
21.08.2019 04:00:00 10,9 8,4 - - 13 7 - - WSW 1027,2 40 0 0,0
21.08.2019 03:00:00 11,5 8,5 - - 13 7 - - WSW 1027,2 40 0 0,0
21.08.2019 02:00:00 12,0 9,2 - - 15 8 - - WSW 1027,1 45 0 0,0
21.08.2019 01:00:00 12,3 9,9 - - 16 9 - - WSW 1027,0 35 - 0,0
21.08.2019 00:00:00 13,1 10,8 - - 15 8 - - WSW 1026,9 30 0 0,0
20.08.2019 23:00:00 13,4 10,8 - - 15 8 - - WSW 1026,7 30 0 0,0
20.08.2019 22:00:00 14,0 10,9 - - 15 8 - - SW 1026,3 40 0 0,0
20.08.2019 21:00:00 15,0 9,7 - - 15 8 - - SW 1026,0 40 0 0,0
20.08.2019 20:00:00 17,3 6,4 - - 5 3 - - WSW 1025,2 45 12 0,0
20.08.2019 19:00:00 18,6 6,0 - - 11 6 - - WSW 1024,8 50 36 0,0
20.08.2019 18:00:00 20,0 5,4 - - 13 7 - - WNW 1024,2 27 42 0,0
20.08.2019 17:00:00 20,3 5,5 - - 15 8 - - WNW 1023,9 30 48 0,0
20.08.2019 16:00:00 20,6 6,3 - - 15 8 - - W 1023,6 45 48 0,0
20.08.2019 15:00:00 20,4 6,1 - - 21 11 - - WNW 1023,4 26 36 0,0
20.08.2019 14:00:00 19,4 8,4 - - 21 11 - - NW 1023,2 30 24 0,0
20.08.2019 13:00:00 18,5 8,5 - - 18 10 - - WNW 1022,8 35 42 0,0
20.08.2019 12:00:00 19,2 8,7 - - 24 13 - - W 1022,5 27 42 0,0
20.08.2019 11:00:00 18,3 10,0 - - 18 10 - - W 1022,5 45 48 0,0
20.08.2019 10:00:00 16,9 11,0 16,5 16,2 15 8 - - WSW 1022,4 30 60 0,0
20.08.2019 09:00:00 15,1 11,6 - - 18 10 - - WSW 1022,0 35 60 0,0
20.08.2019 08:00:00 12,9 11,0 - - 15 8 - - SW 1021,6 30 60 0,0
20.08.2019 07:00:00 11,5 10,4 - - 15 8 - - WSW 1021,0 21 12 0,2
20.08.2019 06:00:00 11,1 10,1 - - 15 8 - - SW 1020,4 30 0 0,0
20.08.2019 05:00:00 11,1 10,1 - - 13 7 - - SW 1020,0 35 0 0,0
20.08.2019 04:00:00 11,2 10,3 - - 11 6 - - WSW 1019,9 22 0 0,0
20.08.2019 03:00:00 11,9 10,9 - - 13 7 - - SW 1019,7 21 0 0,0
20.08.2019 02:00:00 12,1 10,8 - - 15 8 - - SW 1019,6 28 0 0,0
20.08.2019 01:00:00 12,5 11,0 - - 15 8 - - SW 1019,5 24 - 0,0
20.08.2019 00:00:00 12,9 11,0 - - 16 9 - - SW 1019,3 30 0 0,0
19.08.2019 23:00:00 13,5 11,0 - - 18 10 - - SW 1019,0 30 0 0,0
19.08.2019 22:00:00 13,9 10,2 - - 21 11 - - SW 1018,5 45 0 0,0
19.08.2019 21:00:00 15,1 10,8 - - 22 12 - - WSW 1017,8 35 0 0,0
19.08.2019 20:00:00 16,2 11,3 - - 24 13 - - SW 1017,1 40 36 0,0
19.08.2019 19:00:00 17,8 11,1 - - 26 14 - - SW 1016,7 45 48 0,0
19.08.2019 18:00:00 17,1 12,3 - - 22 12 - - SW 1016,3 30 12 0,0
19.08.2019 17:00:00 19,1 11,2 - - 29 16 46 25 SW 1015,8 30 36 0,0
19.08.2019 16:00:00 17,9 11,5 - - 26 14 46 25 SW 1015,8 40 0 0,0
19.08.2019 15:00:00 19,7 12,7 - - 28 15 - - SW 1015,2 30 42 0,0
19.08.2019 14:00:00 20,1 11,7 - - 31 17 50 27 SW 1015,0 50 36 0,0
19.08.2019 13:00:00 20,9 11,7 - - 26 14 - - SW 1014,4 17 48 0,0
19.08.2019 12:00:00 20,2 9,6 - - 29 16 - - SW 1014,3 40 60 0,0
19.08.2019 11:00:00 18,9 8,6 - - 29 16 - - WSW 1014,1 35 60 0,0
19.08.2019 10:00:00 18,4 11,5 16,7 16,2 28 15 - - SW 1013,6 30 60 0,0
19.08.2019 09:00:00 16,7 11,0 - - 29 16 - - WSW 1013,2 22 60 0,0
19.08.2019 08:00:00 15,0 11,3 - - 22 12 - - WSW 1013,1 28 60 0,0
19.08.2019 07:00:00 13,4 11,1 - - 18 10 - - WSW 1012,8 21 18 0,0
19.08.2019 06:00:00 12,5 10,6 - - 13 7 - - SW 1012,4 23 0 0,0
19.08.2019 05:00:00 12,4 10,8 - - 15 8 - - SW 1012,0 22 0 0,0
19.08.2019 04:00:00 12,4 10,8 - - 13 7 - - SSW 1011,7 23 0 0,0
19.08.2019 03:00:00 12,8 10,8 - - 15 8 - - SW 1011,6 22 0 0,0
19.08.2019 02:00:00 13,4 11,3 - - 15 8 - - SW 1011,2 22 0 0,0
19.08.2019 01:00:00 13,7 11,6 - - 18 10 - - SW 1010,9 20 - 0,0
19.08.2019 00:00:00 14,1 11,6 - - 18 10 - - SW 1010,4 28 0 0,0
18.08.2019 23:00:00 14,4 11,6 - - 18 10 - - SW 1010,1 30 0 0,0
18.08.2019 22:00:00 15,3 11,6 - - 26 14 - - SW 1009,4 28 0 0,0
18.08.2019 21:00:00 15,6 11,4 - - 22 12 - - SW 1009,0 27 0 0,0
18.08.2019 20:00:00 16,8 11,4 - - 26 14 - - SW 1008,2 45 42 0,0
18.08.2019 19:00:00 18,7 11,9 - - 29 16 - - SW 1007,5 40 60 0,0
18.08.2019 18:00:00 20,0 11,1 - - 26 14 - - SW 1007,0 30 36 0,0
18.08.2019 17:00:00 19,3 11,0 - - 31 17 - - SW 1006,9 40 36 0,0
18.08.2019 16:00:00 20,3 10,7 - - 29 16 - - SW 1006,5 35 48 0,0
18.08.2019 15:00:00 20,0 11,5 - - 28 15 - - WSW 1006,1 20 60 0,0
18.08.2019 14:00:00 18,3 14,6 - - 22 12 - - SW 1005,9 40 42 0,0
18.08.2019 13:00:00 15,0 13,3 - - 22 12 - - W 1005,7 17 0 4,2
18.08.2019 12:00:00 17,8 13,2 - - 21 11 - - SSW 1005,0 9 12 0,0
18.08.2019 11:00:00 18,6 12,8 - - 21 11 - - SW 1004,7 23 60 0,0
18.08.2019 10:00:00 16,5 12,8 17,0 16,2 13 7 - - SSW 1004,0 35 24 0,0
18.08.2019 09:00:00 15,2 14,2 - - 11 6 - - S 1003,8 35 0 0,0
18.08.2019 08:00:00 14,0 13,2 - - 9 5 - - S 1003,8 26 0 0,4
18.08.2019 07:00:00 14,2 13,3 - - 11 6 - - SW 1003,8 9 0 0,8
18.08.2019 06:00:00 14,5 13,4 - - 8 4 - - SSW 1003,9 21 0 0,0

tt = temperature
td = dewpoint
tt -20cm = temperature -20cm
tt -100cm = temperature -100cm
ff = wind speed
fx = gusts
dd = wind direction
ppp = reduced air pressure
vv = visibility
sd = sunshine duration
rr = precipitation

Next stations